Weather History for Cancun, Mexico

Change the Weather History Date:

Thursday, April 4, 2013

  Actual Average Record
Temperature  
Mean Temperature 82 °F -  
Max Temperature 86 °F 85 °F - ()
Min Temperature 77 °F 69 °F - ()
Cooling Degree Days 17    
Growing Degree Days 32 (Base 50)    
Moisture  
Dew Point 74 °F    
Average Humidity 78    
Maximum Humidity 89    
Minimum Humidity 66    
Precipitation  
Precipitation 0.00 in - - ()
Sea Level Pressure  
Sea Level Pressure 29.91 in    
Wind  
Wind Speed 14 mph ()    
Max Wind Speed 30 mph    
Max Gust Speed 30 mph    
Visibility 6.8 miles    
Events      
T = Trace of Precipitation, MM = Missing Value Source: Averaged Metar Reports

Daily Weather History Graph

Daily Weather History Graph

Search for Another Location

Airport:

Trip Planner

Search our weather history database for the weather conditions in past years. The results will help you decide how hot, cold, wet, or windy it might be!

Date:

Astronomy

Apr. 04, 2013 Rise Set
Actual Time 5:37 AM CST 6:03 PM CST
Civil Twilight 5:15 AM CST 6:25 PM CST
Nautical Twilight 4:49 AM CST 6:51 PM CST
Astronomical Twilight 4:23 AM CST 7:18 PM CST
Moon 1:22 AM CST (4/4) 1:00 PM CST (4/4)
Length of Visible Light 13h 10m
Length of Day
12h 25m
Waning Crescent, 33% of the Moon is Illuminated
Apr 4
Waning Crescent
Apr 10
New
Apr 18
First Quarter
Apr 25
Full
May 2
Last Quarter

Hourly Weather History & Observations

Time (CST) Temp. Heat Index Dew Point Humidity Pressure Visibility Wind Dir Wind Speed Gust Speed Precip Events Conditions
12:45 AM 78.8 °F - 75.2 °F 89% 29.91 in 7.0 mi SE 10.4 mph - N/A   Clear
1:44 AM 78.8 °F - 73.4 °F 83% 29.88 in 7.0 mi SE 12.7 mph - N/A   Partly Cloudy
2:46 AM 78.8 °F - 73.4 °F 83% 29.87 in 7.0 mi SE 15.0 mph - N/A   Scattered Clouds
3:45 AM 78.8 °F - 73.4 °F 83% 29.87 in 7.0 mi SSE 13.8 mph - N/A   Scattered Clouds
4:44 AM 78.8 °F - 73.4 °F 83% 29.88 in 7.0 mi SE 13.8 mph - N/A   Scattered Clouds
5:43 AM 78.8 °F - 73.4 °F 83% 29.89 in 7.0 mi South 15.0 mph - N/A   Scattered Clouds
6:42 AM 80.6 °F 85.4 °F 73.4 °F 79% 29.91 in 7.0 mi SSE 16.1 mph - N/A   Mostly Cloudy
7:47 AM 82.4 °F 88.2 °F 73.4 °F 74% 29.93 in 7.0 mi SSE 19.6 mph - N/A   Mostly Cloudy
8:46 AM 82.4 °F 88.2 °F 73.4 °F 74% 29.92 in 7.0 mi South 16.1 mph - N/A   Mostly Cloudy
9:43 AM 84.2 °F 90.9 °F 73.4 °F 70% 29.95 in 6.0 mi SSE 18.4 mph 29.9 mph N/A   Mostly Cloudy
10:45 AM 84.2 °F 90.9 °F 73.4 °F 70% 29.96 in 6.0 mi SE 29.9 mph - N/A   Scattered Clouds
11:51 AM 84.2 °F 90.9 °F 73.4 °F 70% 29.95 in 6.0 mi South 21.9 mph - N/A   Scattered Clouds
12:47 PM 86.0 °F 93.4 °F 73.4 °F 66% 29.91 in 6.0 mi SSE 21.9 mph - N/A   Mostly Cloudy
1:45 PM 84.2 °F 90.9 °F 73.4 °F 70% 29.89 in 6.0 mi SSE 19.6 mph - N/A   Mostly Cloudy
2:40 PM 86.0 °F 93.4 °F 73.4 °F 66% 29.89 in 7.0 mi SSE 16.1 mph - N/A   Mostly Cloudy
3:44 PM 84.2 °F 90.9 °F 73.4 °F 70% 29.88 in 7.0 mi South 17.3 mph - N/A   Mostly Cloudy
4:55 PM 82.4 °F 88.2 °F 73.4 °F 74% 29.85 in 7.0 mi SE 17.3 mph - N/A   Mostly Cloudy
5:49 PM 80.6 °F 86.2 °F 75.2 °F 84% 29.89 in 7.0 mi SE 13.8 mph - N/A   Mostly Cloudy
6:40 PM 80.6 °F 86.2 °F 75.2 °F 84% 29.90 in 7.0 mi SE 11.5 mph - N/A   Mostly Cloudy
7:43 PM 80.6 °F 86.2 °F 75.2 °F 84% 29.93 in 7.0 mi South 12.7 mph - N/A   Mostly Cloudy
8:40 PM 78.8 °F - 75.2 °F 89% 29.98 in 7.0 mi WSW 4.6 mph - N/A   Mostly Cloudy
9:47 PM 78.8 °F - 75.2 °F 89% 29.89 in 7.0 mi South 23.0 mph - N/A   Mostly Cloudy
10:48 PM 78.8 °F - 71.6 °F 78% 29.93 in 7.0 mi NW 10.4 mph - N/A   Mostly Cloudy
11:50 PM 77.0 °F - 71.6 °F 83% 29.94 in 7.0 mi NW 9.2 mph - N/A   Mostly Cloudy